User: anonymous   Login
Location: Caltech
(34.1382°N, 118.1253°W)
Time: 05:08:41
(UTC-07:00)
Language:

Iridium 14 - Orbit

View from above orbital plane
View from above orbital plane
View from above satellite
View from above satellite

Ground track
Ground track

The orbit data is extracted from the following two-line orbital elements,

1 25777U 99032A   15243.27965560  .00000248  00000-0  81459-4 0  9991
2 25777 086.3999 138.1552 0002180 077.1765 042.9695 14.34217798860660
Epoch (UTC): 31 August 2015 06:42:42
Eccentricity: 0.0002180
inclination: 86.3999°
perigee height: 776 km
apogee height: 779 km
right ascension of ascending node: 138.1552°
argument of perigee: 77.1765°
revolutions per day: 14.34217798
mean anomaly at epoch: 42.9695°
orbit number at epoch: 86066

The dashed part of the orbit path shows where the satellite is in the earth's shadow,  

DLR